Find Local Weather

World > North America > United States > New York

New York, New York Regional Weather

Lat: 40.71N, Lon: 74.01W
Wx Zone: NYZ072
Feedback
Expires:201810171000;;313742
ASUS41 KPHI 170913
RWRPHI

REGIONAL WEATHER ROUNDUP
NATIONAL WEATHER SERVICE MOUNT HOLLY NJ
500 AM EDT WED OCT 17 2018

NOTE:  "FAIR" INDICATES FEW OR NO CLOUDS BELOW 12,000 FEET WITH NO
SIGNIFICANT WEATHER AND/OR OBSTRUCTIONS TO VISIBILITY.

 * = STATION DOES NOT REPORT PRECIPITATION (E.G. RAIN, SNOW, ETC.) 
        OR FOG.


PAZ001-021-NYZ056-072-MDZ011-DCZ001-171000-
OTHER NEARBY LOCATIONS
  
CITY           SKY/WX    TMP DP  RH WIND       PRES   REMARKS
HARRISBURG     FAIR      41  39  93 E3        30.05R                  
STATE COLLEGE  FAIR      40  36  83 S6        30.02S                  
WILLIAMSPORT   FAIR      35  34  96 CALM      30.01S                  
BINGHAMTON     CLOUDY    39  32  76 SW8       29.91F WCI  33          
NEW YORK CITY  FAIR      48  40  73 MISG      30.03S                  
BALTIMORE      MOCLDY    50  49  96 W5        30.06R                  
WASHINGTON DC  MOCLDY    56  49  77 NW5       30.08R                  

$$
  

SKY/WX - Weather  TMP - Temperature  DP - Dew Point  RH - Relative Humidity
WIND - Wind Direction/Speed PRES - Barometric Pressure
Opt in/Opt out of Taboola Video Ads